Regional Weather Roundup
Issued by NWS Cleveland, OH

Home | Current Version | Previous Version | Text Only | Print | Product List | Glossary Off
Versions: 1 2 3 4 5 6 7 8 9 10 11 12 13 14 15 16 17 18 19 20 21 22 23 24 25 26 27 28 29 30 31 32 33 34 35 36 37 38 39 40 41 42 43 44 45 46 47 48 49 50

000
ASUS41 KCLE 010710
RWRCLE
OHIO REGIONAL WEATHER ROUNDUP
NATIONAL WEATHER SERVICE CLEVELAND, OH
200 AM EST SUN FEB 01 2015

NOTE: "FAIR" INDICATES FEW OR NO CLOUDS BELOW 12,000 FEET WITH NO
SIGNIFICANT WEATHER AND/OR OBSTRUCTIONS TO VISIBILITY.

OHZ001>008-015>018-024>027-034-035-043-044-010800-
   NORTHWEST OHIO

CITY           SKY/WX    TMP DP  RH WIND       PRES   REMARKS
DEFIANCE       LGT SNOW  33  31  92 CALM      30.17F VSB 1
FINDLAY        LGT SNOW  32  30  92 SW5       30.16F FOG     WCI  27
TOLEDO EXPRESS LGT SNOW  30  28  93 CALM      30.17S VSB 1
TOLEDO EXEC    LGT SNOW  31  29  92 SW6       30.18S FOG     WCI  25
LIMA           LGT SNOW  33  31  92 SW5       30.16F VSB 1   WCI  29
$$

OHZ009>014-019>023-028>033-038-089-010800-
   NORTHEAST OHIO

CITY           SKY/WX    TMP DP  RH WIND       PRES   REMARKS
CLE-HOPKINS    CLOUDY    31  21  66 SW5       30.19S WCI  26
CLE-LAKEFRONT  CLOUDY    32  23  69 SW8       30.17S WCI  25
CUY CO. ARPT   NOT AVBL
LORAIN-ELYRIA  LGT SNOW  29  25  85 SW7       30.17S FOG     WCI  22
ASHTABULA      CLOUDY    27  19  72 S3        30.16F
AKRON-CANTON   CLOUDY    29  20  69 SW3       30.15F
WOOSTER        CLOUDY    28  22  78 SW3       30.17S
MANSFIELD      LGT SNOW  30  26  85 SW9       30.15S FOG     WCI  22
YOUNGSTOWN     CLOUDY    28  19  69 SW6       30.15F WCI  22
$$

OHZ042-051>053-060>062-070>072-077>081-010800-
  SOUTHWEST OHIO

CITY           SKY/WX    TMP DP  RH WIND       PRES   REMARKS
CINC-COVINGTON CLOUDY    33  29  85 E5        30.18F WCI  29
CINC-LUNKEN    CLOUDY    32  31  96 CALM      30.23S
HAMILTON       CLOUDY    33  32  96 CALM      30.22R FOG
DAYTON         FRZ RAIN  33  32  96 CALM      30.18F FOG
WRIGHT-PAT AFB LGT RAIN  33  31  95 S2        30.18F
DAYTON GENERAL CLOUDY    33  31  92 S3        30.17F FOG
WILMINGTON     FRZ RAIN  32  28  85 CALM      30.17F
$$

OHZ036-037-039>041-045>050-054>059-063>069-073>076-082>088-010800-
  CENTRAL AND SOUTHEAST OHIO

CITY           SKY/WX    TMP DP  RH WIND       PRES   REMARKS
COLUMBUS       LGT SNOW  31  27  85 S3        30.19F FOG
OSU AIRPORT    LGT SNOW  32  29  88 SW3       30.18F FOG
BOLTON FIELD   MIX PCPN  32  31  96 SW8       30.19F WCI  25
RICKENBACK AFB LGT SNOW  32  30  94 SW6       30.20S WCI  26
NEWARK         LGT SNOW  32  29  88 SW3       30.19S FOG
MARION         LGT SNOW  30  28  92 SW5       30.18S FOG     WCI  25
LANCASTER      MIX PCPN  33  29  85 SW7       30.20S WCI  27
ZANESVILLE     LGT SNOW  30  24  78 SW5       30.20S WCI  25
NEW PHILLY     CLOUDY    28  20  71 SE3       30.19F
$$



USA.gov is the U.S. government's official web portal to all federal, state and local government web resources and services.